• In Österreich
  • Länderverzeichnis
  • Für 7 Tage
  • Wassertemperatur
  • Satellitenkarten
  • Wetterkarte
  • News
  • Widgets
  • user-avatar
    Anmelden

    Stündliche Wetter Wien

    Heute, 14 August, Dienstag

    Zeit Temperatur Niederschläge Wind Luftdruck Luftfeuchtigkeit
    00:00 +22°C° 0,3 mm 4 m/S 739 mmHg 76%
    01:00 +21°C° 0 mm 4 m/S 739 mmHg 76%
    02:00 +21°C° 0 mm 4 m/S 739 mmHg 79%
    03:00 +20°C° 0 mm 4 m/S 739 mmHg 82%
    04:00 +20°C° 0 mm 3 m/S 739 mmHg 84%
    05:00 +20°C° 0 mm 4 m/S 740 mmHg 81%
    06:00 +21°C° 0 mm 4 m/S 740 mmHg 78%
    07:00 +22°C° 0 mm 4 m/S 740 mmHg 75%
    08:00 +23°C° 0 mm 4 m/S 741 mmHg 70%
    09:00 +25°C° 0 mm 4 m/S 741 mmHg 65%
    10:00 +26°C° 0 mm 4 m/S 741 mmHg 59%
    11:00 +26°C° 0,3 mm 4 m/S 741 mmHg 59%
    12:00 +26°C° 0,3 mm 4 m/S 741 mmHg 59%
    13:00 +26°C° 0,3 mm 4 m/S 741 mmHg 59%
    14:00 +26°C° 0,4 mm 4 m/S 741 mmHg 62%
    15:00 +25°C° 0,4 mm 4 m/S 741 mmHg 65%
    16:00 +23°C° 0,4 mm 4 m/S 741 mmHg 67%
    17:00 +22°C° 0,7 mm 4 m/S 741 mmHg 71%
    18:00 +21°C° 0,7 mm 4 m/S 742 mmHg 75%
    19:00 +21°C° 0,7 mm 4 m/S 742 mmHg 79%
    20:00 +20°C° 0,3 mm 4 m/S 742 mmHg 79%
    21:00 +20°C° 0,3 mm 4 m/S 742 mmHg 79%
    22:00 +20°C° 0,3 mm 4 m/S 743 mmHg 78%
    23:00 +20°C° 0 mm 4 m/S 743 mmHg 78%

    Morgen, 15 August, Mittwoch

    Zeit Temperatur Niederschläge Wind Luftdruck Luftfeuchtigkeit
    00:00 +20°C° 0 mm 4 m/S 743 mmHg 77%
    01:00 +20°C° 0 mm 4 m/S 743 mmHg 77%
    02:00 +19°C° 0 mm 4 m/S 743 mmHg 78%
    03:00 +19°C° 0 mm 4 m/S 743 mmHg 79%
    04:00 +18°C° 0 mm 4 m/S 744 mmHg 80%
    05:00 +19°C° 0 mm 4 m/S 744 mmHg 78%
    06:00 +19°C° 0 mm 4 m/S 744 mmHg 76%
    07:00 +20°C° 0 mm 5 m/S 744 mmHg 73%
    08:00 +21°C° 0 mm 5 m/S 745 mmHg 67%
    09:00 +23°C° 0 mm 5 m/S 745 mmHg 61%
    10:00 +25°C° 0 mm 5 m/S 745 mmHg 54%
    11:00 +26°C° 0 mm 5 m/S 745 mmHg 51%
    12:00 +27°C° 0 mm 5 m/S 745 mmHg 48%
    13:00 +28°C° 0 mm 5 m/S 745 mmHg 44%
    14:00 +28°C° 0 mm 5 m/S 745 mmHg 44%
    15:00 +28°C° 0 mm 5 m/S 744 mmHg 44%
    16:00 +28°C° 0 mm 5 m/S 744 mmHg 44%
    17:00 +26°C° 0 mm 4 m/S 744 mmHg 49%
    18:00 +25°C° 0 mm 3 m/S 745 mmHg 55%
    19:00 +23°C° 0 mm 2 m/S 745 mmHg 61%
    20:00 +21°C° 0 mm 2 m/S 745 mmHg 63%
    21:00 +21°C° 0 mm 2 m/S 745 mmHg 66%
    22:00 +20°C° 0 mm 2 m/S 746 mmHg 68%
    23:00 +19°C° 0 mm 2 m/S 746 mmHg 70%

    übermorgen, 16 August, Donnerstag

    Zeit Temperatur Niederschläge Wind Luftdruck Luftfeuchtigkeit
    00:00 +19°C° 0 mm 2 m/S 746 mmHg 73%
    01:00 +18°C° 0 mm 2 m/S 746 mmHg 75%
    02:00 +18°C° 0 mm 2 m/S 746 mmHg 77%
    03:00 +17°C° 0 mm 2 m/S 746 mmHg 78%
    04:00 +17°C° 0 mm 2 m/S 746 mmHg 80%
    05:00 +18°C° 0 mm 2 m/S 746 mmHg 77%
    06:00 +19°C° 0 mm 2 m/S 746 mmHg 73%
    07:00 +20°C° 0 mm 2 m/S 746 mmHg 70%
    08:00 +23°C° 0 mm 2 m/S 746 mmHg 63%
    09:00 +25°C° 0 mm 2 m/S 746 mmHg 57%
    10:00 +26°C° 0 mm 2 m/S 746 mmHg 51%
    11:00 +27°C° 0 mm 2 m/S 745 mmHg 47%
    12:00 +28°C° 0 mm 2 m/S 745 mmHg 44%
    13:00 +29°C° 0 mm 2 m/S 745 mmHg 41%
    14:00 +29°C° 0 mm 2 m/S 744 mmHg 40%
    15:00 +29°C° 0 mm 2 m/S 744 mmHg 39%
    16:00 +29°C° 0 mm 2 m/S 744 mmHg 39%
    17:00 +27°C° 0 mm 2 m/S 743 mmHg 44%
    18:00 +26°C° 0 mm 1 m/S 743 mmHg 50%
    19:00 +24°C° 0 mm 1 m/S 743 mmHg 56%
    20:00 +23°C° 0 mm 1 m/S 743 mmHg 59%
    21:00 +22°C° 0 mm 1 m/S 744 mmHg 62%
    22:00 +21°C° 0 mm 1 m/S 744 mmHg 65%
    23:00 +21°C° 0 mm 1 m/S 744 mmHg 68%

    17 August, Freitag

    Zeit Temperatur Niederschläge Wind Luftdruck Luftfeuchtigkeit
    00:00 +20°C° 0 mm 1 m/S 744 mmHg 71%
    01:00 +20°C° 0 mm 1 m/S 743 mmHg 74%
    02:00 +19°C° 0 mm 1 m/S 743 mmHg 76%
    03:00 +19°C° 0 mm 1 m/S 743 mmHg 78%
    04:00 +18°C° 0 mm 1 m/S 743 mmHg 80%
    05:00 +20°C° 0 mm 1 m/S 743 mmHg 76%
    06:00 +21°C° 0 mm 1 m/S 743 mmHg 73%
    07:00 +20°C° 0 mm 0 m/S 743 mmHg 69%
    08:00 +24°C° 0 mm 1 m/S 743 mmHg 62%
    09:00 +26°C° 0 mm 1 m/S 743 mmHg 55%
    10:00 +28°C° 0 mm 1 m/S 743 mmHg 48%
    11:00 +29°C° 0 mm 1 m/S 743 mmHg 45%
    12:00 +30°C° 0 mm 1 m/S 743 mmHg 41%
    13:00 +31°C° 0 mm 1 m/S 743 mmHg 38%
    14:00 +31°C° 0 mm 1 m/S 742 mmHg 37%
    15:00 +32°C° 0 mm 1 m/S 742 mmHg 36%
    16:00 +30°C° 0 mm 0 m/S 742 mmHg 36%
    17:00 +30°C° 0 mm 1 m/S 742 mmHg 41%
    18:00 +28°C° 0 mm 1 m/S 742 mmHg 46%
    19:00 +26°C° 0 mm 1 m/S 742 mmHg 51%
    20:00 +25°C° 0 mm 1 m/S 743 mmHg 54%
    21:00 +24°C° 0 mm 1 m/S 743 mmHg 57%
    22:00 +24°C° 0 mm 1 m/S 743 mmHg 60%
    23:00 +23°C° 0 mm 2 m/S 744 mmHg 63%

    18 August, Samstag

    Zeit Temperatur Niederschläge Wind Luftdruck Luftfeuchtigkeit
    00:00 +22°C° 0 mm 3 m/S 744 mmHg 67%
    01:00 +22°C° 0 mm 4 m/S 744 mmHg 71%
    02:00 +21°C° 0 mm 4 m/S 744 mmHg 72%
    03:00 +21°C° 0 mm 4 m/S 744 mmHg 74%
    04:00 +21°C° 0 mm 5 m/S 744 mmHg 75%
    05:00 +21°C° 0,1 mm 5 m/S 745 mmHg 75%
    06:00 +22°C° 0,1 mm 5 m/S 745 mmHg 75%
    07:00 +22°C° 0,1 mm 5 m/S 745 mmHg 74%
    08:00 +23°C° 0,1 mm 5 m/S 746 mmHg 70%
    09:00 +25°C° 0,1 mm 5 m/S 746 mmHg 67%
    10:00 +26°C° 0,1 mm 5 m/S 746 mmHg 63%
    11:00 +27°C° 0,2 mm 5 m/S 746 mmHg 60%
    12:00 +28°C° 0,2 mm 5 m/S 746 mmHg 56%
    13:00 +29°C° 0,2 mm 5 m/S 746 mmHg 53%
    14:00 +29°C° 0,3 mm 4 m/S 746 mmHg 54%
    15:00 +29°C° 0,3 mm 4 m/S 745 mmHg 55%
    16:00 +29°C° 0,3 mm 4 m/S 745 mmHg 56%
    17:00 +27°C° 0,3 mm 4 m/S 745 mmHg 62%
    18:00 +25°C° 0,3 mm 3 m/S 746 mmHg 69%
    19:00 +24°C° 0,3 mm 3 m/S 746 mmHg 75%
    20:00 +22°C° 0,1 mm 3 m/S 746 mmHg 78%
    21:00 +21°C° 0,1 mm 3 m/S 747 mmHg 81%
    22:00 +21°C° 0,1 mm 3 m/S 747 mmHg 84%
    23:00 +20°C° 0 mm 3 m/S 747 mmHg 85%

    19 August, Sonntag

    Zeit Temperatur Niederschläge Wind Luftdruck Luftfeuchtigkeit
    00:00 +20°C° 0 mm 3 m/S 747 mmHg 86%
    01:00 +19°C° 0 mm 3 m/S 747 mmHg 87%
    02:00 +19°C° 0 mm 3 m/S 747 mmHg 87%
    03:00 +19°C° 0 mm 3 m/S 747 mmHg 87%
    04:00 +18°C° 0 mm 3 m/S 747 mmHg 87%
    05:00 +19°C° 0 mm 3 m/S 747 mmHg 83%
    06:00 +20°C° 0 mm 3 m/S 747 mmHg 79%
    07:00 +21°C° 0 mm 3 m/S 748 mmHg 75%
    08:00 +22°C° 0 mm 3 m/S 748 mmHg 66%
    09:00 +25°C° 0 mm 3 m/S 748 mmHg 58%
    10:00 +27°C° 0 mm 3 m/S 748 mmHg 49%
    11:00 +28°C° 0 mm 3 m/S 747 mmHg 46%
    12:00 +28°C° 0 mm 4 m/S 747 mmHg 42%
    13:00 +29°C° 0 mm 4 m/S 747 mmHg 38%
    14:00 +29°C° 0 mm 4 m/S 747 mmHg 38%
    15:00 +29°C° 0 mm 4 m/S 746 mmHg 38%
    16:00 +29°C° 0 mm 4 m/S 746 mmHg 38%
    17:00 +28°C° 0 mm 3 m/S 746 mmHg 44%
    18:00 +26°C° 0 mm 3 m/S 746 mmHg 50%
    19:00 +24°C° 0 mm 2 m/S 746 mmHg 55%
    20:00 +23°C° 0 mm 2 m/S 747 mmHg 58%
    21:00 +21°C° 0 mm 2 m/S 747 mmHg 62%
    22:00 +21°C° 0 mm 2 m/S 747 mmHg 65%
    23:00 +20°C° 0 mm 2 m/S 747 mmHg 66%
    Mehr zeigen